EW9037 Weather Reports


time (UTC)temp
C
wind
direction
speed
KPH
gust
KPH
rain 1hr
cm
rain 24hr
cm
rain mn
cm
humidity
%
barometer
mb
20180923100013 15 60 3.2 6.4 1.19 2.74 1.63 88 1017.4
20180923094507 15 50 1.6 6.4 0.97 2.49 1.37 89 1017.4
20180923093020 15 45 8.0 14.5 0.69 2.21 1.09 89 1017.2
20180923091505 15 41 3.2 6.4 0.20 1.70 0.58 89 1017.2
20180923090007 15 56 1.6 8.0 0.13 1.55 0.43 89 1017.4
20180923084501 15 37 4.8 6.4 0.18 1.52 0.41 89 1017.4
20180923083159 15 51 4.8 9.7 0.25 1.52 0.41 90 1017.3
20180923083001 15 49 6.4 9.7 0.25 1.52 0.41 90 1017.3
20180923081637 15 63 6.4 14.5 0.28 1.50 0.38 90 1017.6
20180923080136 15 77 4.8 9.7 0.28 1.42 0.30 90 1017.5
20180923074718 15 54 4.8 11.3 0.23 1.35 0.23 90 1017.5
20180923073148 15 68 3.2 8.0 0.15 1.27 0.15 90 1017.7
20180923071557 15 63 1.6 8.0 0.10 1.22 0.10 91 1017.9
20180923070052 16 66 4.8 8.0 0.03 1.14 0.03 91 1018.2
20180923064558 16 43 4.8 8.0 0.00 1.12 0.00 91 1018.3
20180923063049 16 67 4.8 9.7 0.00 1.12 0.00 91 1018.3
20180923061635 16 46 3.2 6.4 0.00 1.12 0.00 91 1018.4
20180923060051 15 67 3.2 9.7 0.00 1.12 0.00 91 1018.5
20180923054555 15 46 4.8 9.7 0.00 1.12 0.00 91 1018.6
20180923053053 15 41 4.8 9.7 0.00 1.12 0.00 91 1018.8
20180923051556 15 61 6.4 14.5 0.00 1.12 0.00 91 1019.1
20180923050046 15 68 4.8 9.7 0.00 1.12 0.00 90 1019.2
20180923044626 15 56 6.4 12.9 0.00 1.12 0.00 90 1019.0
20180923043045 15 45 3.2 11.3 0.00 1.12 0.00 90 1019.4
20180923041534 15 37 3.2 9.7 0.00 1.12 0.00 90 1019.7
20180923034533 15 43 3.2 11.3 0.00 1.12 1.12 90 1020.3
20180923033052 15 75 3.2 9.7 0.00 1.12 1.12 89 1020.0
20180923031553 15 44 3.2 8.0 0.00 1.12 1.12 89 1019.9
20180923030034 15 69 6.4 9.7 0.00 1.12 1.12 89 1020.2
20180923024555 15 49 1.6 4.8 0.03 1.12 1.12 90 1020.4
20180923023028 15 51 1.6 4.8 0.03 1.12 1.12 90 1020.4
20180923021557 15 63 3.2 9.7 0.05 1.12 1.12 90 1020.4
20180923020048 15 46 4.8 11.3 0.08 1.12 1.12 90 1020.3
20180923014529 15 67 3.2 9.7 0.05 1.09 1.09 89 1020.6
20180923013104 15 42 3.2 8.0 0.05 1.09 1.09 89 1020.7
20180923011523 15 39 3.2 8.0 0.03 1.07 1.07 89 1020.4
20180923010025 15 49 1.6 8.0 0.00 1.04 1.04 90 1020.2
20180923004534 15 62 3.2 4.8 0.00 1.04 1.04 90 1020.0
20180923003031 15 72 3.2 8.0 0.03 1.04 1.04 90 1019.7
20180923001528 15 87 1.6 8.0 0.05 1.04 1.04 90 1019.8
20180923000042 15 52 4.8 11.3 0.05 1.04 1.04 90 1019.7
20180922234534 15 77 6.4 9.7 0.05 1.04 1.04 90 1019.9
20180922233022 15 54 6.4 12.9 0.03 1.02 1.02 90 1019.8
20180922231540 15 33 6.4 11.3 0.03 0.99 0.99 89 1019.8
20180922230040 15 43 1.6 6.4 0.05 0.99 0.99 89 1019.9
20180922224530 15 49 3.2 9.7 0.08 0.99 0.99 89 1019.7
20180922223020 15 44 4.8 9.7 0.15 0.99 0.99 90 1019.5
20180922221516 15 54 3.2 9.7 0.15 0.97 0.97 90 1019.8
20180922220020 15 50 1.6 9.7 0.15 0.94 0.94 90 1019.8
20180922214531 15 51 3.2 8.0 0.18 0.91 0.91 90 1020.1
20180922213013 15 56 6.4 9.7 0.18 0.84 0.84 90 1020.2
20180922211527 15 51 1.6 12.9 0.25 0.81 0.81 90 1019.9
20180922210016 15 56 6.4 11.3 0.28 0.79 0.79 90 1020.0
20180922204512 15 63 1.6 16.1 0.28 0.71 0.71 91 1020.3
20180922203009 15 41 4.8 12.9 0.25 0.64 0.64 91 1020.2
20180922201531 15 32 3.2 11.3 0.28 0.56 0.56 91 1020.5
20180922200009 15 58 3.2 6.4 0.28 0.51 0.51 91 1020.6
20180922194504 15 30 6.4 9.7 0.28 0.46 0.46 91 1020.3
20180922193006 15 63 3.2 9.7 0.20 0.36 0.36 92 1021.0
20180922191502 15 49 4.8 11.3 0.15 0.28 0.28 92 1020.9
20180922184602 15 13 0.0 8.0 0.13 0.51 0.18 92 1021.2
20180922183206 15 49 3.2 8.0 0.13 0.48 0.15 92 1021.2
20180922181602 16 51 3.2 6.4 0.10 0.46 0.13 92 1021.4
20180922180145 16 40 3.2 4.8 0.13 0.46 0.13 92 1021.5
20180922174629 16 335 1.6 8.0 0.05 0.38 0.05 91 1021.7
20180922173308 16 49 1.6 6.4 0.03 0.36 0.03 90 1021.6
20180922171559 16 13 3.2 6.4 0.03 0.36 0.03 89 1021.6
20180922170058 16 345 4.8 9.7 0.00 0.33 0.00 88 1021.6
20180922164611 16 34 4.8 11.3 0.00 0.33 0.00 88 1021.7
20180922163051 16 42 4.8 9.7 0.00 0.33 0.00 87 1021.8
20180922161637 16 51 3.2 8.0 0.00 0.33 0.00 87 1021.9
20180922160122 16 44 1.6 9.7 0.00 0.33 0.00 87 1022.0
20180922154553 16 41 4.8 9.7 0.00 0.33 0.00 87 1021.9
20180922153112 16 36 4.8 9.7 0.00 0.33 0.00 86 1022.2
20180922151549 16 39 1.6 6.4 0.00 0.33 0.00 85 1022.2
20180922150110 16 46 4.8 12.9 0.00 0.33 0.00 84 1021.9
20180922144610 17 65 1.6 9.7 0.00 0.33 0.00 83 1021.9
20180922143126 17 5 0.0 4.8 0.00 0.33 0.00 82 1021.8
20180922141544 17 41 3.2 14.5 0.00 0.33 0.00 81 1021.3
20180922140052 17 51 4.8 9.7 0.00 0.33 0.00 82 1021.1
20180922134551 17 63 6.4 12.9 0.00 0.33 0.00 80 1021.1
20180922133055 17 35 3.2 9.7 0.00 0.33 0.00 81 1021.2
20180922131550 17 52 4.8 11.3 0.00 0.33 0.00 79 1021.3
20180922130035 17 79 9.7 14.5 0.00 0.33 0.00 78 1021.1
20180922124622 17 54 9.7 19.3 0.00 0.36 0.00 79 1020.9
20180922123028 17 49 6.4 12.9 0.00 0.36 0.00 80 1021.0
20180922121537 17 45 8.0 14.5 0.00 0.36 0.00 79 1020.9
20180922120027 17 51 9.7 14.5 0.00 0.36 0.00 80 1021.0
20180922114559 17 69 8.0 17.7 0.00 0.36 0.00 80 1021.3
20180922113027 17 49 6.4 11.3 0.00 0.36 0.00 81 1021.3
20180922111536 17 35 4.8 8.0 0.00 0.36 0.00 81 1021.1
20180922110049 18 49 4.8 12.9 0.00 0.36 0.00 81 1020.8
20180922104516 18 39 11.3 17.7 0.00 0.36 0.00 80 1020.6
20180922103022 18 44 6.4 17.7 0.00 0.36 0.00 80 1020.4
20180922101533 18 27 4.8 12.9 0.00 0.36 0.00 79 1020.2